Date_and_time,latitude,longitude,wind_speed,RelWindDirFrom,WindDirFrom,air_pressure,air_temperature,relative_humidity,Temp,platform_speed_wrt_ground,air_pressure_at_mean_sea_level,platform_orientation
2018-10-06 00:00,52.8261983333333,-97.6159566666667,5.5,8.1,180,991.98,2.7,62,8.98,0.0,1019.66,11.9
2018-10-06 00:10,52.8261166666667,-97.61633,5.4,7.7,150,992.04,2.6,61,8.98,0.1,1019.72,11.9
2018-10-06 00:20,52.826185,-97.615995,5.8,8.3,174,992.11,2.7,61,8.97,0.1,1019.80,11.9
2018-10-06 00:30,52.8261833333333,-97.6161516666667,4.6,7.6,175,992.06,2.6,61,8.96,0.0,1019.67,11.9
2018-10-06 00:40,52.8261733333333,-97.6161766666667,5.0,6.8,168,992.03,2.7,61,8.96,0.0,1019.63,11.9
2018-10-06 00:50,52.8261233333333,-97.6161666666667,2.4,4.6,173,992.06,2.7,61,8.97,0.0,1019.67,11.9
2018-10-06 01:00,52.826165,-97.6162533333333,4.0,7.3,165,992.07,2.7,62,8.97,0.0,1019.72,313.3
2018-10-06 01:10,52.8261816666667,-97.6161583333333,5.1,7.5,163,992.14,2.8,62,8.97,0.0,1019.82,313.3
2018-10-06 01:20,52.826165,-97.61626,4.3,7.2,160,992.17,2.7,62,8.97,0.0,1019.86,313.3
2018-10-06 01:30,52.8261466666667,-97.6162983333333,4.5,7.4,154,992.18,2.8,63,8.96,0.0,1019.88,313.3
2018-10-06 01:40,52.826165,-97.61614,4.9,7.3,168,992.12,2.9,64,8.96,0.0,1019.81,313.3
2018-10-06 01:50,52.8261116666667,-97.61632,5.3,7.9,148,992.11,2.8,61,8.96,0.0,1019.80,313.3
2018-10-06 02:00,52.8261716666667,-97.6162533333333,5.4,7.6,168,992.15,2.8,62,8.95,0.0,1019.85,277.5
2018-10-06 02:10,52.8261583333333,-97.616245,5.6,8.5,154,992.08,2.8,62,8.95,0.0,1019.78,277.5
2018-10-06 02:20,52.82617,-97.616175,5.2,7.2,161,992.17,2.9,62,8.94,0.0,1019.87,277.5
2018-10-06 02:30,52.826155,-97.6162633333333,4.6,6.4,161,992.23,2.9,62,8.93,0.0,1019.93,277.5
2018-10-06 02:40,52.8261866666667,-97.616185,4.9,7.4,168,992.27,2.9,62,8.93,0.0,1019.97,277.5
2018-10-06 02:50,52.8261716666667,-97.61623,5.5,7.8,168,992.24,2.9,63,8.92,0.0,1019.94,277.5
2018-10-06 03:00,52.8261933333333,-97.61611,6.1,7.9,168,992.22,2.9,63,8.91,0.0,1019.91,266.6
2018-10-06 03:10,52.82619,-97.616115,5.7,8.3,173,992.19,2.9,63,8.91,0.0,1019.88,266.6
2018-10-06 03:20,52.8261933333333,-97.616105,6.1,9.7,179,992.14,2.9,62,8.91,0.0,1019.83,266.6
2018-10-06 03:30,52.8261916666667,-97.6161533333333,5.5,8.3,176,992.08,2.9,63,8.90,0.0,1019.77,266.6
2018-10-06 03:40,52.8261666666667,-97.616055,6.6,9.6,176,992.03,2.9,62,8.88,0.0,1019.71,266.6
2018-10-06 03:50,52.8261883333333,-97.6160883333333,5.8,8.5,176,992.08,2.9,62,8.88,0.0,1019.77,266.6
2018-10-06 04:00,52.826195,-97.6160566666667,6.2,8.2,177,992.04,2.9,62,8.88,0.0,1019.73,79.5
2018-10-06 04:10,52.8261466666667,-97.615825,4.7,6.9,204,992.05,3.0,62,8.88,0.1,1019.73,79.5
2018-10-06 04:20,52.8261883333333,-97.6160116666667,5.0,7.3,198,992.00,3.0,62,8.88,0.0,1019.68,79.5
2018-10-06 04:30,52.8261816666667,-97.6160566666667,5.1,7.7,187,991.91,3.0,63,8.87,0.0,1019.58,79.5
2018-10-06 04:40,52.8261933333333,-97.6160933333333,6.3,8.7,175,991.80,3.1,61,8.85,0.0,1019.47,79.5
2018-10-06 04:50,52.8261966666667,-97.6160383333333,4.8,8.9,179,991.81,3.2,63,8.85,0.0,1019.47,79.5
2018-10-06 05:00,52.8261366666667,-97.6161866666667,5.4,7.3,182,991.76,3.1,63,8.86,0.0,1019.42,137.6
2018-10-06 05:10,52.826175,-97.6160916666667,6.1,9.2,193,991.71,3.2,66,8.85,0.0,1019.37,137.6
2018-10-06 05:20,52.8262,-97.6161216666667,6.4,9.6,176,991.70,3.1,70,8.85,0.0,1019.37,137.6
2018-10-06 05:30,52.8262066666667,-97.616085,8.0,10.4,175,991.62,3.1,70,8.84,0.0,1019.28,137.6
2018-10-06 05:40,52.826195,-97.6161433333333,7.2,9.2,169,991.55,3.0,69,8.82,0.0,1019.21,137.6
2018-10-06 05:50,52.826195,-97.6161933333333,6.9,9.6,170,991.45,3.1,70,8.82,0.0,1019.11,137.6
2018-10-06 06:00,52.82617,-97.6161883333333,8.5,11.2,157,991.28,3.1,69,8.81,0.0,1018.92,250.7
2018-10-06 06:10,52.8261816666667,-97.6161683333333,6.1,9.0,174,991.49,3.1,68,8.79,0.0,1019.14,250.7
2018-10-06 06:20,52.8261916666667,-97.6161933333333,6.2,9.2,181,991.57,3.1,69,8.78,0.0,1019.23,250.7
2018-10-06 06:30,52.826185,-97.61619,6.7,9.4,180,991.49,3.1,70,8.77,0.0,1019.14,250.7
2018-10-06 06:40,52.8261916666667,-97.6161433333333,6.7,8.4,181,991.52,3.1,70,8.76,0.0,1019.17,250.7
2018-10-06 06:50,52.8262,-97.6161416666667,7.2,10.2,182,991.53,3.0,69,8.75,0.0,1019.18,250.7
2018-10-06 07:00,52.8261966666667,-97.6161516666667,7.3,9.4,179,991.53,3.0,70,8.73,0.0,1019.18,276.0
2018-10-06 07:10,52.8261966666667,-97.616055,7.3,9.7,180,991.53,3.1,70,8.71,0.0,1019.18,276.0
2018-10-06 07:20,52.8261983333333,-97.6160283333333,6.7,9.3,184,991.60,3.1,71,8.70,0.0,1019.25,276.0
2018-10-06 07:30,52.8262133333333,-97.61613,7.1,10.3,182,991.63,3.1,71,8.68,0.0,1019.28,276.0
2018-10-06 07:40,52.8262033333333,-97.616055,7.1,9.4,171,991.64,3.1,71,8.67,0.0,1019.30,276.0
2018-10-06 07:50,52.8262033333333,-97.6160183333333,7.8,9.6,187,991.66,3.1,72,8.67,0.0,1019.32,276.0
2018-10-06 08:00,52.826205,-97.6160683333333,8.2,10.5,181,991.58,3.1,74,8.68,0.0,1019.23,47.8
2018-10-06 08:10,52.8262116666667,-97.6160916666667,8.5,10.4,178,991.59,3.1,74,8.70,0.0,1019.24,47.8
2018-10-06 08:20,52.8262066666667,-97.61596,9.1,11.7,188,991.53,3.2,75,8.71,0.0,1019.18,47.8
2018-10-06 08:30,52.8262033333333,-97.6160316666667,9.6,12.3,189,991.43,3.2,77,8.73,0.0,1019.07,47.8
2018-10-06 08:40,52.8262,-97.6159966666667,10.1,13.3,190,991.39,3.2,78,8.72,0.0,1019.04,47.8
2018-10-06 08:50,52.8262216666667,-97.6160616666667,10.2,12.6,191,991.42,3.2,81,8.72,0.0,1019.07,47.8
2018-10-06 09:00,52.8262816666667,-97.6157883333333,9.5,12.1,198,991.54,3.2,82,8.72,0.1,1019.19,65.9
2018-10-06 09:10,52.8262883333333,-97.6158583333333,6.8,11.2,205,991.65,3.2,80,8.70,0.0,1019.29,65.9
2018-10-06 09:20,52.8263,-97.61595,8.0,10.2,199,991.65,3.3,78,8.70,0.0,1019.29,65.9
2018-10-06 09:30,52.82628,-97.6159333333333,7.0,9.5,201,991.72,3.3,77,8.69,0.0,1019.36,65.9
2018-10-06 09:40,52.8262666666667,-97.6158483333333,8.2,11.3,206,991.67,3.3,76,8.69,0.0,1019.31,65.9
2018-10-06 09:50,52.8262816666667,-97.6158116666667,8.0,11.9,208,991.76,3.4,76,8.68,0.0,1019.40,65.9
2018-10-06 10:00,52.8262816666667,-97.615805,8.0,10.5,211,991.83,3.4,76,8.68,0.0,1019.47,67.6
2018-10-06 10:10,52.8262683333333,-97.61582,7.2,9.7,215,991.99,3.4,75,8.69,0.0,1019.63,67.6
2018-10-06 10:20,52.8262633333333,-97.615755,6.9,9.2,218,992.09,3.4,75,8.70,0.0,1019.74,67.6
2018-10-06 10:30,52.82629,-97.6158516666667,7.6,10.6,203,992.11,3.4,74,8.70,0.0,1019.75,67.6
2018-10-06 10:40,52.8262466666667,-97.6157416666667,7.9,11.0,212,992.12,3.4,74,8.72,0.0,1019.77,67.6
2018-10-06 10:50,52.8262583333333,-97.6157916666667,7.1,9.1,212,992.03,3.4,74,8.73,0.0,1019.67,67.6
2018-10-06 11:00,52.8262633333333,-97.6157883333333,9.0,11.2,194,991.91,3.4,74,8.73,0.0,1019.55,69.2
2018-10-06 11:10,52.8262816666667,-97.6158016666667,8.9,11.4,199,992.04,3.4,73,8.73,0.0,1019.68,69.2
2018-10-06 11:20,52.8262766666667,-97.6157133333333,8.8,11.7,200,992.18,3.4,73,8.73,0.0,1019.82,69.2
2018-10-06 11:30,52.8262883333333,-97.615765,9.6,12.5,196,992.19,3.4,73,8.73,0.0,1019.83,69.2
2018-10-06 11:40,52.8263166666667,-97.615965,9.2,11.8,191,992.25,3.4,73,8.73,0.0,1019.88,69.2
2018-10-06 11:50,52.8263,-97.6157983333333,9.1,11.0,192,992.29,3.4,73,8.73,0.0,1019.93,69.2
2018-10-06 12:00,52.826275,-97.6158366666667,9.3,11.9,190,992.31,3.5,78,8.73,0.0,1019.95,257.3
2018-10-06 12:10,52.8315583333333,-97.61373,8.0,12.8,194,992.40,3.4,80,8.73,2.0,1020.04,257.3
2018-10-06 12:20,52.8500066666667,-97.5833933333333,6.2,10.9,134,992.52,3.7,81,8.72,9.4,1020.15,257.3
2018-10-06 12:30,52.8696366666667,-97.5435416666667,8.0,10.4,120,992.53,3.7,81,8.48,11.2,1020.17,257.3
2018-10-06 12:40,52.88901,-97.503815,8.8,12.1,115,992.59,3.6,82,7.78,11.1,1020.23,257.3
2018-10-06 12:50,52.8964,-97.4634616666667,15.3,27.6,126,992.19,3.1,86,7.57,9.2,1019.84,257.3
2018-10-06 13:00,52.8886183333333,-97.4358633333333,18.3,26.0,139,992.15,1.3,95,6.55,6.6,1019.89,60.1
2018-10-06 13:10,52.8888066666667,-97.4362866666667,10.9,13.3,135,992.66,0.8,96,6.31,0.1,1020.44,60.1
2018-10-06 13:20,52.8888166666667,-97.4363066666667,10.0,13.5,133,992.71,0.6,97,6.32,0.0,1020.50,60.1
2018-10-06 13:30,52.8888216666667,-97.4362,10.7,13.5,136,992.62,0.6,98,6.28,0.0,1020.41,60.1
2018-10-06 13:40,52.8888533333333,-97.4360633333333,12.6,16.9,145,992.57,0.7,99,6.25,0.0,1020.36,60.1
2018-10-06 13:50,52.8888233333333,-97.436235,11.0,13.8,145,992.79,0.7,99,6.21,0.0,1020.58,60.1
2018-10-06 14:00,52.8888216666667,-97.43629,12.0,15.3,148,992.75,1.0,99,6.20,0.0,1020.52,59.9
2018-10-06 14:10,52.88882,-97.43617,12.0,14.7,150,992.77,1.6,99,6.17,0.0,1020.51,59.9
2018-10-06 14:20,52.8888216666667,-97.4360766666667,11.5,17.3,142,992.85,1.4,99,6.17,0.0,1020.59,59.9
2018-10-06 14:30,52.8887333333333,-97.436025,11.5,14.5,148,993.00,1.9,99,6.12,0.0,1020.73,59.9
2018-10-06 14:40,52.8958633333333,-97.4614216666667,12.1,18.8,224,993.13,2.9,93,6.03,6.1,1020.83,59.9
2018-10-06 14:50,52.9005483333333,-97.5098516666667,19.3,23.7,236,992.47,3.9,87,6.35,10.7,1020.19,59.9
2018-10-06 15:00,52.8988483333333,-97.5597783333333,21.4,24.2,229,992.21,4.1,87,7.31,10.9,1019.95,25.0
2018-10-06 15:10,52.9058233333333,-97.60289,18.6,24.1,232,992.65,4.0,87,7.49,9.7,1020.41,25.0
2018-10-06 15:20,52.9320033333333,-97.6296616666667,12.1,16.1,247,993.50,3.8,91,7.56,11.1,1021.30,25.0
2018-10-06 15:30,52.9573133333333,-97.6582716666667,12.3,16.2,248,993.58,3.8,92,7.84,11.0,1021.37,25.0
2018-10-06 15:40,52.98246,-97.6873366666667,10.8,15.7,241,993.53,4.1,91,8.28,11.0,1021.31,25.0
2018-10-06 15:50,53.01031,-97.7063383333333,11.5,17.2,255,993.43,4.4,87,8.21,10.8,1021.17,25.0
2018-10-06 16:00,53.0268933333333,-97.7101116666667,12.3,20.0,242,993.08,4.6,82,7.77,6.0,1020.77,310.0
2018-10-06 16:10,53.0277333333333,-97.7104733333333,15.2,18.6,214,992.84,4.9,80,7.55,0.3,1020.53,310.0
2018-10-06 16:20,53.0307316666667,-97.70758,13.9,16.5,224,993.39,4.6,83,7.64,1.2,1021.07,310.0
2018-10-06 16:30,53.02489,-97.700125,15.9,20.1,228,993.13,4.9,85,7.74,2.7,1020.74,310.0
2018-10-06 16:40,53.0249133333333,-97.6999666666667,13.8,16.9,225,993.13,4.8,85,7.56,0.0,1020.70,310.0
2018-10-06 16:50,53.0249733333333,-97.7001116666667,14.7,17.6,224,993.08,4.8,83,7.55,0.0,1020.64,310.0
2018-10-06 17:00,53.0250083333333,-97.7001116666667,13.4,16.1,221,993.19,4.9,84,7.55,0.0,1020.75,310.7
2018-10-06 17:10,53.0249533333333,-97.7000566666667,13.6,16.6,231,993.20,4.9,82,7.56,0.0,1020.77,310.7
2018-10-06 17:20,53.02391,-97.6999516666667,12.7,15.4,235,993.35,4.9,84,7.58,0.4,1020.92,310.7
2018-10-06 17:30,53.0305166666667,-97.6958833333333,11.2,13.9,239,993.66,4.5,84,7.77,2.5,1021.24,310.7
2018-10-06 17:40,53.0372416666667,-97.6916433333333,10.3,12.7,228,993.72,4.5,85,7.94,2.6,1021.29,310.7
2018-10-06 17:50,53.044215,-97.6885633333333,10.1,12.5,228,993.74,4.7,83,7.88,2.6,1021.29,310.7
2018-10-06 18:00,53.06154,-97.6801083333333,6.7,11.7,251,993.82,4.7,83,7.92,6.5,1021.36,336.0
2018-10-06 18:10,53.0912733333333,-97.66755,5.5,10.2,290,993.88,4.8,83,8.10,11.0,1021.43,336.0
2018-10-06 18:20,53.1213666666667,-97.65618,6.8,10.3,290,993.89,4.8,84,7.95,11.1,1021.43,336.0
2018-10-06 18:30,53.1514533333333,-97.6453583333333,6.2,9.7,288,993.95,4.8,85,7.96,11.1,1021.49,336.0
2018-10-06 18:40,53.1696333333333,-97.639815,7.5,11.0,257,993.90,4.8,84,7.66,6.7,1021.45,336.0
2018-10-06 18:50,53.1759616666667,-97.63699,9.7,11.8,229,993.80,4.8,83,7.37,2.4,1021.34,336.0
2018-10-06 19:00,53.1824216666667,-97.635015,9.8,11.8,234,993.81,4.8,84,7.26,2.4,1021.35,16.1
2018-10-06 19:10,53.189655,-97.6355283333333,9.1,11.5,237,993.89,4.9,82,7.10,2.6,1021.43,16.1
2018-10-06 19:20,53.200015,-97.6333283333333,7.6,11.4,234,993.88,5.0,85,6.91,3.8,1021.43,16.1
2018-10-06 19:30,53.20004,-97.6333066666667,10.9,13.1,228,993.74,5.2,83,6.94,0.0,1021.28,16.1
2018-10-06 19:40,53.2000466666667,-97.6332916666667,10.7,12.8,229,993.81,5.2,82,6.91,0.0,1021.34,16.1
2018-10-06 19:50,53.1972816666667,-97.64908,13.7,21.8,231,993.63,5.1,81,6.84,3.5,1021.15,16.1
2018-10-06 20:00,53.1908233333333,-97.698455,20.8,23.0,243,993.15,5.2,80,7.52,10.9,1020.65,360.0
2018-10-06 20:10,53.1836866666667,-97.7476383333333,21.0,23.3,244,993.12,5.3,79,8.13,10.9,1020.61,360.0
2018-10-06 20:20,53.1823083333333,-97.7854316666667,17.0,22.0,254,993.41,5.4,79,8.29,8.2,1020.91,360.0
2018-10-06 20:30,53.1800416666667,-97.7958483333333,11.2,14.2,238,993.88,5.5,78,8.44,2.4,1021.39,360.0
2018-10-06 20:40,53.1764983333333,-97.805785,10.5,12.6,264,994.00,5.6,81,8.55,2.5,1021.51,360.0
2018-10-06 20:50,53.173635,-97.8166916666667,10.2,12.0,268,994.08,5.5,82,8.68,2.6,1021.60,360.0
2018-10-06 21:00,53.1708066666667,-97.8340116666667,11.0,16.6,272,994.13,5.4,83,8.77,3.9,1021.65,319.8
2018-10-06 21:10,53.1706533333333,-97.8374716666667,8.4,13.5,280,994.32,5.2,84,8.78,0.7,1021.84,319.8
2018-10-06 21:20,53.1706616666667,-97.837425,7.5,10.2,279,994.38,5.2,84,8.78,0.0,1021.90,319.8
2018-10-06 21:30,53.1706066666667,-97.8373883333333,7.1,9.6,273,994.45,5.2,83,8.78,0.0,1021.97,319.8
2018-10-06 21:40,53.170645,-97.8374133333333,7.5,10.7,272,994.51,5.2,83,8.79,0.0,1022.03,319.8
2018-10-06 21:50,53.1717283333333,-97.8444966666667,8.8,19.8,272,994.48,5.3,82,8.81,1.6,1021.99,319.8
2018-10-06 22:00,53.187825,-97.8876233333333,17.9,20.4,288,993.98,5.2,79,8.75,11.0,1021.48,272.1
2018-10-06 22:10,53.2025966666667,-97.9318633333333,18.1,21.0,289,993.97,5.3,78,8.70,10.9,1021.46,272.1
2018-10-06 22:20,53.2167666666667,-97.976535,19.3,21.6,287,993.91,5.4,77,8.73,10.9,1021.39,272.1
2018-10-06 22:30,53.232155,-98.0200483333333,19.5,22.1,287,993.98,5.4,76,8.80,10.9,1021.46,272.1
2018-10-06 22:40,53.2462283333333,-98.06469,20.3,22.6,287,993.96,5.4,75,8.78,10.9,1021.43,272.1
2018-10-06 22:50,53.2595416666667,-98.1099833333333,21.0,24.9,286,993.87,5.6,71,8.81,10.9,1021.35,272.1
2018-10-06 23:00,53.2746733333333,-98.1534783333333,23.2,26.2,298,993.52,5.7,67,8.79,10.8,1020.99,287.3
2018-10-06 23:10,53.2894266666667,-98.1972116666667,23.2,25.6,298,993.59,5.6,67,8.78,10.8,1021.06,287.3
2018-10-06 23:20,53.3038316666667,-98.2412733333333,22.9,25.9,296,993.78,5.7,64,8.80,10.8,1021.26,287.3
2018-10-06 23:30,53.3184616666667,-98.285285,23.0,26.1,300,993.81,5.8,61,8.81,10.8,1021.28,287.3
